GW2194 Weather Reports


time (UTC)temp
C
wind
direction
speed
KPH
gust
KPH
rain 1hr
cm
rain 24hr
cm
rain mn
cm
humidity
%
barometer
mb
20260503192547 12 28 4.8 19.3 0.00 0.00 0.00 31 1018.8
20260503192043 13 239 8.0 22.5 0.00 0.00 0.00 31 1019.0
20260503191540 12 103 8.0 9.7 0.00 0.00 0.00 39 1018.7
20260503191037 12 3 9.7 14.5 0.00 0.00 0.00 31 1019.0
20260503190533 12 119 4.8 8.0 0.00 0.00 0.00 30 1018.8
20260503190030 12 30 9.7 25.7 0.00 0.00 0.00 31 1019.1
20260503185526 11 12 4.8 8.0 0.00 0.00 0.00 39 1018.8
20260503185021 12 340 9.7 11.3 0.00 0.00 0.00 32 1019.2
20260503184517 12 3 1.6 17.7 0.00 0.00 0.00 37 1019.1
20260503184014 12 25 4.8 19.3 0.00 0.00 0.00 36 1019.2
20260503183510 12 261 8.0 11.3 0.00 0.00 0.00 34 1019.2
20260503183008 12 232 12.9 20.9 0.00 0.00 0.00 42 1019.5
20260503182507 12 202 4.8 11.3 0.00 0.00 0.00 33 1019.3
20260503182005 11 3 8.0 17.7 0.00 0.00 0.00 33 1019.5
20260503181501 12 346 12.9 14.5 0.00 0.00 0.00 42 1019.4
20260503180956 12 246 14.5 17.7 0.00 0.00 0.00 36 1019.3
20260503180455 12 338 9.7 16.1 0.00 0.00 0.00 44 1019.5
20260503175951 11 8 6.4 9.7 0.00 0.00 0.00 39 1019.6
20260503175449 11 32 11.3 14.5 0.00 0.00 0.00 37 1019.6
20260503174945 12 185 6.4 6.4 0.00 0.00 0.00 38 1019.6
20260503174443 11 230 14.5 19.3 0.00 0.00 0.00 36 1019.6
20260503173938 11 292 11.3 11.3 0.00 0.00 0.00 40 1019.6
20260503173434 10 43 8.0 14.5 0.00 0.00 0.00 37 1019.6
20260503172931 10 63 6.4 14.5 0.00 0.00 0.00 42 1019.6
20260503172429 10 351 11.3 16.1 0.00 0.00 0.00 45 1019.8
20260503171925 11 267 3.2 6.4 0.00 0.00 0.00 37 1019.9
20260503171422 10 71 8.0 17.7 0.00 0.00 0.00 34 1019.9
20260503170919 10 1 8.0 17.7 0.00 0.00 0.00 41 1020.0
20260503170415 9 350 6.4 14.5 0.00 0.00 0.00 38 1020.3
20260503150808 7 0 11.3 12.9 0.00 0.00 0.00 43 1021.1
20260503150303 7 220 4.8 8.0 0.00 0.00 0.00 45 1021.1
20260503140228 6 347 4.8 8.0 0.00 0.00 0.00 52 1021.1
20260503131157 5 0 8.0 8.0 0.00 0.00 0.00 60 1021.2
20260503130655 5 42 4.8 8.0 0.00 0.00 0.00 62 1020.9
20260503130152 4 303 6.4 8.0 0.00 0.00 0.00 63 1020.9
20260503120118 1 110 1.6 1.6 0.00 0.00 0.00 92 1021.0
20260503110545 0 64 1.6 3.2 0.00 0.00 0.00 93 1020.3
20260503090432 0 329 0.0 1.6 0.00 0.00 0.00 85 1019.3
20260503081358 2 251 0.0 3.2 0.00 0.00 0.00 78 1018.5
20260503080855 2 23 0.0 3.2 0.00 0.00 0.00 77 1018.4
20260503080352 2 290 1.6 3.2 0.00 0.00 0.00 76 1018.6
20260503072829 3 8 3.2 6.4 0.00 0.00 0.00 73 1018.2
20260503072326 3 66 0.0 3.2 0.00 0.00 0.00 74 1018.2
20260503071822 3 1 4.8 4.8 0.00 0.00 0.00 73 1018.0
20260503071320 3 12 1.6 4.8 0.00 0.00 0.00 73 1018.2
20260503070815 3 344 3.2 6.4 0.00 0.00 0.00 72 1017.9
20260503070308 3 51 4.8 8.0 0.00 0.00 0.00 72 1018.0
20260503060232 3 31 0.0 3.2 0.00 0.00 0.00 72 1018.0
20260503054719 3 16 4.8 8.0 0.00 0.00 0.00 71 1017.9
20260503054216 3 18 1.6 4.8 0.00 0.00 0.00 72 1018.0
20260503053715 3 11 3.2 4.8 0.00 0.00 0.00 72 1017.9
20260503053213 3 7 4.8 6.4 0.00 0.00 0.00 72 1018.0
20260503052709 3 358 3.2 4.8 0.00 0.00 0.00 72 1017.8
20260503052206 3 24 3.2 6.4 0.00 0.00 0.00 71 1017.6
20260503051701 3 26 3.2 4.8 0.00 0.00 0.00 71 1017.9
20260503051159 3 8 3.2 3.2 0.00 0.00 0.00 71 1017.7
20260503050655 3 36 4.8 4.8 0.00 0.00 0.00 70 1018.2
20260503050151 3 25 6.4 6.4 0.00 0.00 0.00 71 1017.9
20260503045649 3 3 3.2 4.8 0.00 0.00 0.00 71 1018.2
20260503045146 3 53 3.2 6.4 0.00 0.00 0.00 71 1018.0
20260503044643 3 16 3.2 4.8 0.00 0.00 0.00 71 1017.8
20260503044141 3 24 3.2 3.2 0.00 0.00 0.00 72 1017.9
20260503043637 3 277 1.6 4.8 0.00 0.00 0.00 71 1018.2
20260503043134 4 336 0.0 3.2 0.00 0.00 0.00 71 1018.3
20260503042630 4 354 6.4 12.9 0.00 0.00 0.00 70 1018.0
20260503042126 4 9 6.4 8.0 0.00 0.00 0.00 71 1018.2
20260503041623 4 39 3.2 6.4 0.00 0.00 0.00 71 1018.4
20260503041121 4 46 4.8 6.4 0.00 0.00 0.00 70 1018.2
20260503040618 4 28 4.8 4.8 0.00 0.00 0.00 70 1017.9
20260503040116 4 33 8.0 8.0 0.00 0.00 0.00 69 1018.3
20260503035612 4 11 4.8 6.4 0.00 0.00 0.00 68 1018.0
20260503035110 4 25 6.4 6.4 0.00 0.00 0.00 68 1018.0
20260503034607 4 348 4.8 9.7 0.00 0.00 0.00 68 1018.2
20260503034104 4 22 9.7 11.3 0.00 0.00 0.00 67 1018.0
20260503033601 5 2 4.8 8.0 0.00 0.00 0.00 67 1018.2
20260503033059 5 343 6.4 8.0 0.00 0.00 0.00 66 1018.0
20260503032557 5 2 3.2 17.7 0.00 0.00 0.00 67 1018.2
20260503032055 5 23 6.4 9.7 0.00 0.00 0.00 67 1018.2
20260503031552 5 14 4.8 8.0 0.00 0.00 0.00 67 1018.0
20260503031050 5 8 8.0 8.0 0.00 0.00 0.00 68 1018.0
20260503030545 5 358 4.8 6.4 0.00 0.00 0.00 67 1017.9
20260503030043 5 17 9.7 9.7 0.00 0.00 0.00 66 1018.3
20260503025539 5 336 6.4 11.3 0.00 0.00 0.00 67 1018.4
20260503025037 5 13 14.5 14.5 0.00 0.00 0.00 66 1018.3
20260503024533 5 259 0.0 9.7 0.00 0.00 0.00 68 1018.0
20260503024031 5 0 6.4 8.0 0.00 0.00 0.00 68 1018.0
20260503023527 5 18 4.8 8.0 0.00 0.00 0.00 67 1017.8
20260503023025 5 15 3.2 11.3 0.00 0.00 0.00 66 1017.9
20260503022520 5 25 8.0 12.9 0.00 0.00 0.00 66 1018.3
20260503022015 5 15 4.8 9.7 0.00 0.00 0.00 66 1018.0
20260503021512 5 339 22.5 24.1 0.00 0.00 0.00 66 1018.0
20260503021009 5 354 8.0 17.7 0.00 0.00 0.00 66 1018.2
20260503020507 5 347 4.8 16.1 0.00 0.00 0.00 67 1018.0
20260503020003 6 16 9.7 16.1 0.00 0.00 0.00 67 1017.9
20260503015500 6 26 8.0 12.9 0.00 0.00 0.00 67 1017.8
20260503014956 6 17 8.0 8.0 0.00 0.00 0.00 66 1018.0
20260503014453 6 350 9.7 12.9 0.00 0.00 0.00 65 1017.9
20260503013951 6 14 3.2 8.0 0.00 0.00 0.00 66 1017.8
20260503013448 6 0 6.4 8.0 0.00 0.00 0.00 65 1017.7
20260503012945 6 349 8.0 12.9 0.00 0.00 0.00 65 1017.7
20260503012443 6 16 9.7 9.7 0.00 0.00 0.00 64 1017.6
20260503011939 6 12 11.3 14.5 0.00 0.00 0.00 63 1017.6
20260503011436 6 29 8.0 9.7 0.00 0.00 0.00 63 1017.5
20260503010933 6 22 6.4 9.7 0.00 0.00 0.00 63 1017.4
20260503010429 6 5 8.0 12.9 0.00 0.00 0.00 61 1017.4
20260503005927 6 4 8.0 16.1 0.00 0.00 0.00 61 1017.4
20260503005424 6 12 11.3 14.5 0.00 0.00 0.00 60 1017.1
20260503004921 7 356 4.8 17.7 0.00 0.00 0.00 60 1017.1
20260503004418 7 6 8.0 17.7 0.00 0.00 0.00 57 1016.9
20260503003915 7 9 8.0 19.3 0.00 0.00 0.00 55 1016.9
20260503003412 7 13 6.4 8.0 0.00 0.00 0.00 53 1016.8
20260503002909 7 352 4.8 4.8 0.00 0.00 0.00 51 1016.6
20260503002406 7 9 11.3 12.9 0.00 0.00 0.00 50 1016.7
20260503001902 7 15 12.9 17.7 0.00 0.00 0.00 49 1016.7
20260503001359 7 347 16.1 17.7 0.00 0.00 0.00 49 1016.7
20260503000857 7 8 11.3 12.9 0.00 0.00 0.00 49 1016.6
20260503000353 7 20 14.5 17.7 0.00 0.00 0.00 47 1016.5
20260502235850 8 31 9.7 25.7 0.00 0.00 0.00 46 1016.4
20260502235347 8 344 11.3 12.9 0.00 0.00 0.00 45 1016.2
20260502234844 8 176 0.0 9.7 0.00 0.00 0.00 46 1016.3
20260502234341 8 0 12.9 17.7 0.00 0.00 0.00 43 1016.2
20260502233838 8 0 6.4 9.7 0.00 0.00 0.00 45 1016.2
20260502233334 8 15 4.8 8.0 0.00 0.00 0.00 44 1016.1
20260502232831 8 33 8.0 9.7 0.00 0.00 0.00 42 1015.6
20260502232328 8 353 6.4 14.5 0.00 0.00 0.00 42 1015.8
20260502231824 8 46 3.2 4.8 0.00 0.00 0.00 42 1015.8
20260502231322 8 91 3.2 9.7 0.00 0.00 0.00 42 1015.7
20260502230820 8 32 9.7 20.9 0.00 0.00 0.00 40 1016.0
20260502230318 8 18 8.0 17.7 0.00 0.00 0.00 40 1015.6
20260502225814 8 19 9.7 16.1 0.00 0.00 0.00 40 1015.6
20260502225311 8 39 8.0 11.3 0.00 0.00 0.00 41 1015.6
20260502224808 8 192 3.2 8.0 0.00 0.00 0.00 42 1015.8
20260502224304 8 40 6.4 14.5 0.00 0.00 0.00 40 1016.0
20260502223802 8 31 12.9 14.5 0.00 0.00 0.00 43 1016.3
20260502223300 9 346 11.3 19.3 0.00 0.00 0.00 40 1015.8
20260502222757 9 29 14.5 19.3 0.00 0.00 0.00 40 1015.6
20260502222254 9 5 0.0 8.0 0.00 0.00 0.00 40 1015.6
20260502221750 9 2 6.4 16.1 0.00 0.00 0.00 39 1015.6
20260502221246 9 354 8.0 14.5 0.00 0.00 0.00 40 1015.3
20260502220743 9 358 4.8 6.4 0.00 0.00 0.00 40 1015.6
20260502220239 9 45 8.0 9.7 0.00 0.00 0.00 40 1015.7
20260502215736 9 259 1.6 12.9 0.00 0.00 0.00 39 1015.7
20260502215233 9 291 3.2 12.9 0.00 0.00 0.00 41 1015.6
20260502214731 9 26 14.5 22.5 0.00 0.00 0.00 40 1015.5
20260502214227 10 21 11.3 12.9 0.00 0.00 0.00 40 1015.4
20260502213724 10 334 3.2 6.4 0.00 0.00 0.00 39 1015.4
20260502213222 10 331 3.2 11.3 0.00 0.00 0.00 40 1015.1
20260502212721 10 352 8.0 11.3 0.00 0.00 0.00 39 1015.4
20260502212218 10 269 0.0 9.7 0.00 0.00 0.00 41 1015.1
20260502211714 10 243 6.4 14.5 0.00 0.00 0.00 41 1015.1
20260502211211 10 354 3.2 14.5 0.00 0.00 0.00 40 1015.2
20260502210708 10 14 11.3 14.5 0.00 0.00 0.00 38 1015.4
20260502210205 10 26 16.1 19.3 0.00 0.00 0.00 38 1015.3
20260502205703 10 224 4.8 11.3 0.00 0.00 0.00 42 1015.3
20260502205159 10 21 6.4 11.3 0.00 0.00 0.00 39 1015.4
20260502204655 10 316 6.4 16.1 0.00 0.00 0.00 38 1015.2
20260502204154 10 316 3.2 9.7 0.00 0.00 0.00 36 1015.6
20260502203650 10 301 8.0 14.5 0.00 0.00 0.00 38 1015.5
20260502203149 10 260 6.4 14.5 0.00 0.00 0.00 39 1015.4
20260502202642 10 57 4.8 6.4 0.00 0.00 0.00 39 1015.3
20260502202141 10 2 6.4 20.9 0.00 0.00 0.00 40 1015.5
20260502201637 10 258 6.4 9.7 0.00 0.00 0.00 37 1015.3
20260502201134 10 326 4.8 9.7 0.00 0.00 0.00 38 1015.3
20260502200630 10 4 11.3 16.1 0.00 0.00 0.00 37 1015.5
20260502200127 10 343 12.9 19.3 0.00 0.00 0.00 39 1015.5
20260502195626 10 10 3.2 8.0 0.00 0.00 0.00 40 1015.8
20260502195121 10 287 1.6 8.0 0.00 0.00 0.00 36 1015.6
20260502194618 10 352 4.8 8.0 0.00 0.00 0.00 39 1015.6
20260502194114 10 3 4.8 4.8 0.00 0.00 0.00 41 1015.8
20260502193611 10 217 4.8 9.7 0.00 0.00 0.00 40 1015.4
20260502193108 10 201 14.5 16.1 0.00 0.00 0.00 41 1015.7